Location: Desert Center
(33.7130°N, 115.4010°W)
Time: 00:01:15
(UTC-07:00)

Daily predictions for brighter satellites

Satellite Brightness Start Highest point End
(mag) Time Altitude Azimuth Time Altitude Azimuth Time Altitude Azimuth
CZ-4C R/B 3.1 00:08:02 42° NNE 00:08:02 42° NNE 00:11:48 10° NNE
Cosmos 1844 Rocket 3.4 00:39:30 50° N 00:39:30 50° N 00:43:44 10° NNE
Cosmos 1634 Rocket 4.3 00:35:29 10° N 00:40:47 58° NE 00:40:47 58° NE
CZ-2C R/B 4.4 00:50:10 36° WNW 00:50:10 36° WNW 00:54:09 10° NNW
H-2A R/B 4.3 01:17:52 10° NNE 01:20:19 32° NNE 01:20:19 32° NNE
Cosmos 2278 Rocket 2.7 01:27:04 55° NNW 01:27:04 55° NNW 01:31:38 10° NNE
Nadezhda 4 Rocket 4.2 01:35:13 64° ENE 01:35:13 64° ENE 01:41:11 10° NNE
Cosmos 1833 Rocket 4.3 01:33:52 10° N 01:38:40 28° ENE 01:40:32 23° E
Cosmos 2297 4.0 01:46:52 62° NE 01:46:52 62° NE 01:51:39 10° NNE
Cosmos 2279 Rocket 4.4 01:48:10 10° NNW 01:53:28 51° WNW 01:53:28 51° WNW
Cosmos 1733 Rocket 4.5 01:56:07 36° NNE 01:56:07 36° NNE 01:58:52 10° NNE
Meteor 1-10 Rocket 4.4 01:50:56 10° N 01:56:01 69° NNW 01:56:01 69° NNW
USA 267 4.4 01:57:58 10° ENE 02:03:11 27° ESE 02:03:11 27° ESE
Cosmos 2082 Rocket 2.9 01:58:25 10° N 02:03:51 48° ENE 02:04:46 44° E
Cosmos 44 4.1 02:10:25 45° N 02:10:25 45° N 02:13:42 10° NNE
ADEOS Rocket 3.9 02:03:03 10° NNE 02:10:17 48° E 02:12:01 41° SE
ATLAS 3B R/B 2.7 02:15:40 69° SSW 02:16:45 86° ESE 02:24:03 10° NNE
Cosmos 44 Rocket 4.2 02:19:53 41° NNW 02:19:53 41° NNW 02:23:46 10° NNE
Cosmos 2195 Rocket 4.4 02:22:49 68° SE 02:23:30 75° E 02:29:46 10° N
Helios 1A Rocket 4.4 02:21:14 10° N 02:23:43 32° NNW 02:23:43 32° NNW
Meteor 1-27 Rocket 3.7 02:19:45 10° N 02:25:43 79° W 02:25:43 79° W
AQUA 4.1 02:22:06 10° NNE 02:26:22 62° ENE 02:26:22 62° ENE
Cosmos 1627 Rocket 4.3 02:27:04 70° SSE 02:27:43 79° E 02:33:51 10° N
Cosmos 1674 Rocket 4.2 02:24:24 10° N 02:27:55 54° NNE 02:27:55 54° NNE
Cosmos 1937 Rocket 3.6 02:30:03 67° NW 02:30:03 67° NW 02:34:48 10° NNE
Milstar 3 4.3 02:33:10 30° SSE 02:34:25 30° SE 02:45:10 10° E
Cosmos 1908 Rocket 4.0 02:35:31 60° NE 02:35:31 60° NE 02:39:18 10° N
Meteor 2-20 Rocket 4.3 02:35:56 71° SW 02:36:31 77° W 02:42:42 10° N
Timation 2 Rocket 4.4 02:31:15 10° NNW 02:37:17 58° ENE 02:41:04 24° SE
Resurs 1-4 Rocket 2.7 02:35:08 10° NNE 02:40:17 49° E 02:41:09 44° SE
COBE Rocket 3.9 02:36:07 10° NNE 02:40:56 72° E 02:41:00 72° ESE
Geosat 3.8 02:37:12 10° NNE 02:42:15 87° ESE 02:42:20 86° SSE
Cosmos 1898 Rocket 4.4 02:43:27 36° WNW 02:43:27 36° WNW 02:48:06 10° N
Okean 2 Rocket 4.4 02:42:50 30° ESE 02:43:26 31° E 02:47:20 10° NNE
OAO 1 4.4 02:44:54 73° SE 02:44:54 73° SE 02:50:10 10° E
SeaSat 1 2.4 02:45:36 74° WNW 02:45:36 74° WNW 02:50:14 10° NNW
Cosmos 990 Rocket 4.1 02:45:28 58° WNW 02:45:28 58° WNW 02:50:28 10° N
Cosmos 1092 Rocket 4.4 02:46:12 44° W 02:46:41 45° W 02:52:39 10° N
Cosmos 1378 Rocket 3.7 02:46:08 10° N 02:50:20 68° ENE 02:50:20 68° ENE
Delta 2 Rocket 3.9 02:53:06 60° SE 02:53:06 60° SE 02:57:00 10° ESE
Cosmos 1125 Rocket 4.2 02:51:59 39° SE 02:53:08 46° ESE 02:58:11 10° NNE
IRS-1C 4.0 02:49:15 10° N 02:54:35 75° WNW 02:55:09 68° SW
CZ-2D R/B 2.3 02:50:40 10° NNE 02:56:02 70° ESE 02:57:14 53° SSE
SL-08 R/B 3.3 02:57:17 66° W 02:57:17 66° W 03:01:54 10° NNW
Cosmos 1782 Rocket 3.6 02:57:32 73° ESE 02:57:41 73° E 03:02:09 10° N
Cosmos 2026 Rocket 3.9 02:58:14 55° WSW 02:59:12 62° W 03:05:12 10° N
ARIANE 5 R/B 2.6 02:55:22 10° NNE 03:00:21 68° ESE 03:01:18 54° SSE
Spot 4 Rocket 3.9 02:57:48 10° NNE 03:02:58 88° ESE 03:03:51 62° S
Cosmos 1553 Rocket 4.2 02:58:22 10° N 03:04:45 69° E 03:08:29 26° SSE
UNKNOWN OBJECT B 4.1 03:01:51 10° NE 03:05:09 30° E 03:05:36 29° ESE
H-2A R/B 4.4 02:03:52 10° WSW 03:05:13 66° SSE 03:12:26 10° E
USA 238 DEB 4.0 03:06:09 41° WSW 03:08:27 58° NW 03:15:21 10° NNE
USA 238 3.9 03:06:15 41° WSW 03:08:33 59° NW 03:15:27 10° NNE
IRS-1D 3.3 03:05:30 10° N 03:10:36 84° WNW 03:11:33 59° SSW
Centaur D AC-25 4.3 02:36:56 10° WSW 03:12:40 61° S 03:18:23 10° E
Meteor 1-18 Rocket 4.5 03:09:58 10° N 03:15:30 65° E 03:19:04 22° SSE
Meteor 1-20 Rocket 4.2 03:14:39 42° S 03:16:45 84° E 03:22:37 10° N
Cosmos 1943 Rocket 3.4 03:14:38 21° SSE 03:17:34 35° ESE 03:22:37 10° NE
Cosmos 1437 3.3 03:15:54 10° N 03:18:38 57° NNE 03:18:38 57° NNE
GP-B 4.4 03:16:07 10° NNW 03:19:22 27° WNW 03:19:22 27° WNW
Cosmos 724 4.3 03:17:55 44° SSW 03:20:03 89° WNW 03:26:17 10° NNE
Cosmos 2369 Rocket 2.2 03:18:13 42° S 03:20:07 74° ESE 03:25:45 10° NNE
Meteor 2-11 Rocket 4.4 03:15:44 10° N 03:21:55 87° W 03:25:15 29° S
UNK 3.6 03:21:08 55° SSW 03:22:02 71° W 03:26:42 10° NNW
Cosmos 1833 Rocket 3.4 03:17:32 10° NW 03:22:10 33° W 03:22:10 33° W
Cosmos 405 Rocket 4.2 03:19:14 10° N 03:22:55 36° ENE 03:25:28 17° SE
Cosmos 1655 Rocket 4.4 03:25:44 37° WSW 03:27:32 47° W 03:33:33 10° N
Cosmos 1812 2.5 03:24:39 10° N 03:28:30 73° W 03:28:42 71° SW
COSMOS 2455 3.4 03:27:30 26° S 03:30:37 51° ESE 03:36:25 10° NE
USA 161 4.3 03:30:14 10° E 03:31:13 12° ENE 03:32:13 10° NE
Cosmos 2151 Rocket 4.2 03:29:13 28° SSE 03:31:22 55° E 03:35:48 10° NNE
Cosmos 372 Rocket 3.9 03:29:52 41° SSW 03:31:45 89° ESE 03:36:58 10° NNE
Cosmos 1975 Rocket 2.9 03:27:36 10° N 03:31:56 71° W 03:32:56 50° SSW
SL-16 R/B 2.6 03:31:45 32° SSW 03:34:35 58° W 03:40:43 10° NNW
ADEOS II 4.0 03:31:30 10° NE 03:35:45 25° E 03:39:59 10° SSE
Cosmos 2263 4.4 03:34:12 31° S 03:37:04 73° ESE 03:42:51 10° NNE
CZ-3B DEB 3.9 03:25:31 10° NW 03:38:48 86° SW 03:48:56 10° SE
Cosmos 1602 3.9 03:43:35 32° S 03:45:16 70° E 03:49:12 10° NNE
USA 267 3.4 03:40:05 10° NE 03:46:34 68° NW 03:50:31 25° WSW
Cosmos 2082 Rocket 3.7 03:43:44 10° WNW 03:46:33 18° W 03:46:33 18° W
ASTRO E2 2.9 03:46:57 44° SSW 03:47:33 48° S 03:51:24 10° E
Cosmos 468 4.4 03:42:48 10° NNW 03:48:07 77° WSW 03:53:09 11° S
NOSS 3-2 (C) 3.4 03:45:13 31° SW 03:48:14 79° WNW 03:54:41 10° NNE
NOSS 3-2 (A) 3.7 03:46:06 30° WSW 03:49:01 58° NW 03:55:22 10° NNE
Cosmos 158 Rocket 4.1 03:44:06 10° NNW 03:49:11 71° ENE 03:54:07 10° SSE
SL-24 R/B 4.2 03:46:07 10° NNE 03:50:26 87° E 03:53:18 25° S
Cosmos 1536 Rocket 4.2 03:50:11 10° N 03:54:37 57° E 03:58:59 10° SSE
ADEOS Rocket 4.5 03:49:00 10° N 03:55:17 30° WNW 03:58:58 19° WSW
MOZ.5/SAFIR/RUBIN 5/SL-8 3.7 03:56:03 17° S 03:59:41 68° W 04:04:25 10° NNW
Cosmos 2266 Rocket 4.2 03:58:28 23° SSW 04:02:33 58° W 04:08:53 10° N
Cosmos 1633 3.3 04:03:18 31° WSW 04:04:09 36° W 04:07:33 10° NNW
Cosmos 2315 Rocket 4.2 03:57:52 10° N 04:04:09 72° E 04:10:21 10° SSE
CENTAUR R/B 3.3 04:01:24 12° S 04:06:23 43° ESE 04:12:26 10° NE
Cosmos 1048 Rocket 4.0 04:04:33 10° NNW 04:09:55 70° WSW 04:15:14 10° S
GRACE-1 4.4 04:09:58 36° W 04:10:05 36° W 04:12:37 10° NNW
GRACE-2 4.4 04:10:23 36° W 04:10:32 36° W 04:13:03 10° NNW
Okean 1 3.9 04:07:21 10° NNW 04:11:08 38° W 04:12:59 24° SW
Gbstr 26 Del rocket 3.0 04:10:14 25° WSW 04:12:08 53° NW 04:15:49 10° NE
Resurs 1-4 Rocket 3.8 04:16:12 10° NNW 04:19:40 18° WNW 04:22:14 13° W
Okean 1 Rocket 3.3 04:15:29 10° S 04:19:56 71° E 04:24:23 10° N
Cosmos 2344 4.2 04:15:51 17° WSW 04:21:32 45° NW 04:29:29 10° NNE
CZ-4B R/B 4.0 04:19:25 10° NNE 04:24:50 51° E 04:30:18 10° S
CZ-4B R/B 2.9 04:22:49 10° NNE 04:26:29 67° E 04:30:02 10° S
BREEZE M DEB (TANK) 3.2 04:21:32 16° SW 04:27:20 85° SE 04:30:09 10° NE
Meteor 2-4 Rocket 3.8 04:22:24 10° N 04:28:02 78° E 04:33:29 10° SSE
Centaur D-1AR AC-40 3.7 04:16:38 10° WSW 04:29:22 32° SSW 04:33:33 10° SE
Cosmos 1441 Rocket 3.5 04:26:17 10° NNW 04:30:10 48° W 04:33:59 10° S
Meteor 1-13 Rocket 4.3 04:29:03 10° NNW 04:34:28 59° W 04:39:57 10° S
Meteor 1-11 Rocket 4.0 04:29:26 12° SSW 04:34:30 52° W 04:40:10 10° N
CZ-2D R/B 4.1 04:33:04 10° NW 04:35:28 13° WNW 04:37:53 10° W
Cosmos 1300 Rocket 4.1 04:36:07 12° SSW 04:39:56 42° W 04:44:10 10° N
Meteor 1-5 Rocket 4.4 04:34:58 10° S 04:40:55 86° W 04:46:56 10° N
CCE 1 Rocket 4.5 04:43:47 11° WSW 04:46:44 25° SSW 04:50:09 10° SE
Molniya-1 2.0 04:52:25 12° SSW 04:54:02 86° SE 04:55:35 10° NNE
Okean O Rocket 1.8 04:50:56 10° N 04:55:15 58° WNW 04:59:34 10° SSW
OAO 2 Rocket 4.5 04:54:04 10° SW 04:58:43 34° SSE 05:03:27 10° E
Cosmos 1943 Rocket 3.4 04:56:33 10° WSW 05:01:17 27° WNW 05:06:01 10° N
Meteor PRIRODA 4.0 04:57:56 10° NNE 05:01:40 71° ESE 05:05:23 10° S
Cosmos 2369 Rocket 4.2 05:01:58 10° W 05:04:44 14° NW 05:07:31 10° NNW
Cosmos 1745 Rocket 4.1 05:00:04 10° S 05:06:25 77° W 05:12:46 10° N
